Date String (YYYY-MM-DD hh:mm:ss) UTC,Instrument flags,absolute air pressure of the measurement (hPa),sample flow rate (lpm),inlet stack bypass flow (lpm),air temperature of the measurement (°C),ambient temperature measured by the external sensor (°C),aerosol sample conditioner tube jacket temperature (°C),OPC LED temperature (°C),internal box temperature (°C),relative humidity of the measurement (%),span deviation,mass concentration of particles derived from Lorenz-Mie calculation of OPC scattering (μg/m³),mass concentration of particles derived from Lorenz-Mie calculation of OPC scattering (μg/m³),mass concentration of particles derived from Lorenz-Mie calculation of OPC scattering (μg/m³)
DateTimeUTC,F1_M11,P_M11,Q1_M11,Q2_M11,T1_M11,T2_M11,T3_M11,T4_M11,T5_M11,U1_M11,ZSPAN_M11,X2_M11,X0_M11,X1_M11
2024-06-05 06:00:00,SystemResetWarning,0827.8,5.00,000.00,030.6,030.0,000.0,038.7,032.3,014.4,0000.0,0002.05,0004.84,0001.01
2024-06-05 06:01:00,SystemResetWarning,0827.7,4.99,000.00,030.5,029.3,000.0,038.7,031.9,014.4,0000.0,0002.08,0005.04,0000.99
2024-06-05 06:02:00,SystemResetWarning,0827.7,5.01,000.00,030.1,026.9,000.0,038.8,030.8,014.8,0000.0,0002.06,0005.07,0000.98
2024-06-05 06:03:00,SystemResetWarning,0827.7,5.01,000.00,029.8,026.6,000.0,038.7,030.5,015.1,0000.0,0002.04,0004.98,0000.97
2024-06-05 06:04:00,SystemResetWarning,0827.7,5.00,000.00,029.7,026.9,000.0,038.6,030.6,015.1,0000.0,0002.00,0004.51,0000.97
2024-06-05 06:05:00,SystemResetWarning,0827.7,4.99,000.00,029.7,027.3,000.0,038.5,030.8,015.1,0000.0,0002.08,0004.59,0000.98
2024-06-05 06:06:00,SystemResetWarning,0827.7,5.00,000.00,029.7,027.7,000.0,038.4,031.0,015.0,0000.0,0002.08,0005.06,0000.97
2024-06-05 06:07:00,SystemResetWarning,0827.7,5.01,000.00,029.7,028.0,000.0,038.3,031.2,015.1,0000.0,0002.06,0005.95,0000.98
2024-06-05 06:08:00,SystemResetWarning,0827.6,5.01,000.00,029.7,028.3,000.0,038.3,031.3,015.0,0000.0,0002.06,0006.32,0000.98
2024-06-05 06:09:00,SystemResetWarning,0827.6,4.99,000.00,029.8,028.5,000.0,038.3,031.4,015.1,0000.0,0002.00,0006.23,0000.97
2024-06-05 06:10:00,SystemResetWarning,0827.5,5.00,000.00,029.8,028.7,000.0,038.3,031.5,015.0,0000.0,0001.90,0006.64,0000.97
2024-06-05 06:11:00,SystemResetWarning,0827.6,4.99,000.00,029.8,028.9,000.0,038.3,031.5,015.0,0000.0,0001.92,0007.93,0000.96
2024-06-05 06:12:00,SystemResetWarning,0827.7,5.00,000.00,029.9,029.0,000.0,038.3,031.6,015.1,0000.0,0001.94,0008.00,0000.97
2024-06-05 06:13:00,SystemResetWarning,0827.6,5.00,000.00,029.9,029.1,000.0,038.3,031.6,015.2,0000.0,0002.00,0008.12,0001.00
2024-06-05 06:14:00,SystemResetWarning,0827.5,5.00,000.00,030.0,029.2,000.0,038.3,031.7,015.1,0000.0,0002.02,0008.12,0001.01
2024-06-05 06:15:00,SystemResetWarning,0827.5,5.01,000.00,030.0,029.3,000.0,038.3,031.7,015.0,0000.0,0002.04,0008.12,0001.00
2024-06-05 06:16:00,SystemResetWarning,0827.5,5.01,000.00,030.0,029.4,000.0,038.3,031.8,015.0,0000.0,0002.02,0008.23,0000.99
2024-06-05 06:17:00,SystemResetWarning,0827.6,5.00,000.00,030.1,029.5,000.0,038.3,031.9,014.9,0000.0,0002.03,0008.31,0000.99
2024-06-05 06:18:00,SystemResetWarning,0827.6,5.00,000.00,030.1,029.5,000.0,038.3,031.9,014.9,0000.0,0002.02,0007.85,0000.99
2024-06-05 06:19:00,SystemResetWarning,0827.4,4.99,000.00,030.2,029.6,000.0,038.4,031.9,014.8,0000.0,0001.96,0007.55,0000.99
2024-06-05 06:20:00,SystemResetWarning,0827.6,4.99,000.00,030.2,029.6,000.0,038.4,032.0,014.8,0000.0,0001.93,0007.57,0000.98
2024-06-05 06:21:00,SystemResetWarning,0827.4,5.00,000.00,030.2,029.7,000.0,038.4,032.0,014.9,0000.0,0001.94,0007.49,0000.98
2024-06-05 06:22:00,SystemResetWarning,0827.4,5.01,000.00,030.3,029.7,000.0,038.4,032.0,015.0,0000.0,0001.92,0006.04,0000.98
2024-06-05 06:23:00,SystemResetWarning,0827.5,5.00,000.00,030.3,029.7,000.0,038.5,032.0,014.9,0000.0,0001.93,0005.95,0000.98
2024-06-05 06:24:00,SystemResetWarning,0827.4,5.01,000.00,030.3,029.8,000.0,038.5,032.0,014.8,0000.0,0001.87,0005.62,0000.96
2024-06-05 06:25:00,SystemResetWarning,0827.4,4.99,000.00,030.4,029.8,000.0,038.5,032.1,014.9,0000.0,0001.85,0005.58,0000.96
2024-06-05 06:26:00,SystemResetWarning,0827.5,4.99,000.00,030.4,029.8,000.0,038.6,032.1,014.9,0000.0,0001.87,0005.70,0000.97
2024-06-05 06:27:00,SystemResetWarning,0827.4,5.00,000.00,030.4,029.9,000.0,038.6,032.1,014.7,0000.0,0001.83,0005.39,0000.96
2024-06-05 06:28:00,SystemResetWarning,0827.4,5.01,000.00,030.5,029.9,000.0,038.6,032.2,014.6,0000.0,0001.83,0005.59,0000.96
2024-06-05 06:29:00,SystemResetWarning,0827.4,5.01,000.00,030.5,029.9,000.0,038.6,032.2,014.6,0000.0,0001.89,0005.66,0000.96
2024-06-05 06:30:00,SystemResetWarning,0827.4,5.00,000.00,030.5,030.0,000.0,038.7,032.2,014.5,0000.0,0001.99,0005.92,0000.96
2024-06-05 06:31:00,SystemResetWarning,0827.4,4.99,000.00,030.5,030.0,000.0,038.7,032.3,014.5,0000.0,0002.04,0006.05,0000.96
2024-06-05 06:32:00,SystemResetWarning,0827.4,5.00,000.00,030.6,030.0,000.0,038.7,032.3,014.5,0000.0,0002.07,0007.30,0000.97
2024-06-05 06:33:00,SystemResetWarning,0827.4,5.01,000.00,030.6,030.0,000.0,038.8,032.3,014.4,0000.0,0002.05,0007.03,0000.96
2024-06-05 06:34:00,SystemResetWarning,0827.4,5.01,000.00,030.6,030.0,000.0,038.8,032.3,014.4,0000.0,0002.02,0006.86,0000.96
2024-06-05 06:35:00,SystemResetWarning,0827.4,5.00,000.00,030.6,030.1,000.0,038.8,032.4,014.4,0000.0,0002.07,0007.08,0000.97
2024-06-05 06:36:00,SystemResetWarning,0827.2,4.98,000.00,030.6,029.7,000.0,038.8,032.1,014.4,0000.0,0002.11,0007.58,0000.97
2024-06-05 06:37:00,SystemResetWarning,0827.1,5.01,000.00,030.3,027.2,000.0,038.9,031.0,014.6,0000.0,0002.07,0007.50,0000.97
2024-06-05 06:38:00,SystemResetWarning,0827.1,5.01,000.00,029.9,026.5,000.0,038.9,030.5,015.0,0000.0,0002.09,0007.55,0000.97
2024-06-05 06:39:00,SystemResetWarning,0827.1,5.00,000.00,029.7,026.8,000.0,038.7,030.5,015.1,0000.0,0002.05,0007.20,0000.96
2024-06-05 06:40:00,SystemResetWarning,0827.2,5.00,000.00,029.7,027.2,000.0,038.6,030.8,015.2,0000.0,0001.94,0007.31,0000.94
2024-06-05 06:41:00,SystemResetWarning,0827.1,5.00,000.00,029.7,027.6,000.0,038.5,031.0,015.2,0000.0,0001.87,0007.61,0000.94
2024-06-05 06:42:00,SystemResetWarning,0827.2,5.00,000.00,029.7,027.9,000.0,038.4,031.2,015.1,0000.0,0001.89,0007.62,0000.94
2024-06-05 06:43:00,SystemResetWarning,0827.2,5.01,000.00,029.7,028.2,000.0,038.4,031.3,015.2,0000.0,0001.89,0006.72,0000.94
2024-06-05 06:44:00,SystemResetWarning,0827.1,4.99,000.00,029.8,028.5,000.0,038.3,031.4,015.1,0000.0,0001.94,0007.59,0000.95
2024-06-05 06:45:00,SystemResetWarning,0827.1,5.00,000.00,029.8,028.7,000.0,038.3,031.4,015.0,0000.0,0001.91,0007.73,0000.94
2024-06-05 06:46:00,SystemResetWarning,0827.1,4.99,000.00,029.8,028.8,000.0,038.3,031.5,014.9,0000.0,0001.84,0007.95,0000.93
2024-06-05 06:47:00,SystemResetWarning,0827.1,5.01,000.00,029.9,029.0,000.0,038.3,031.6,014.9,0000.0,0001.81,0007.76,0000.92
2024-06-05 06:48:00,SystemResetWarning,0827.2,5.01,000.00,029.9,029.1,000.0,038.3,031.6,014.9,0000.0,0001.79,0007.79,0000.92
2024-06-05 06:49:00,SystemResetWarning,0827.1,5.00,000.00,029.9,029.2,000.0,038.3,031.7,014.9,0000.0,0001.76,0007.74,0000.92
2024-06-05 06:50:00,SystemResetWarning,0827.1,5.01,000.00,030.0,029.3,000.0,038.3,031.7,014.8,0000.0,0001.77,0007.71,0000.92
2024-06-05 06:51:00,SystemResetWarning,0827.1,5.00,000.00,030.0,029.3,000.0,038.3,031.8,014.7,0000.0,0001.81,0007.51,0000.93
2024-06-05 06:52:00,SystemResetWarning,0827.2,5.00,000.00,030.1,029.4,000.0,038.3,031.8,014.7,0000.0,0001.79,0006.81,0000.93
2024-06-05 06:53:00,SystemResetWarning,0827.2,5.00,000.00,030.1,029.5,000.0,038.4,031.8,014.8,0000.0,0001.72,0006.53,0000.93
2024-06-05 06:54:00,SystemResetWarning,0827.1,5.00,000.00,030.1,029.5,000.0,038.4,031.9,014.8,0000.0,0001.72,0006.63,0000.93
2024-06-05 06:55:00,SystemResetWarning,0827.1,5.01,000.00,030.2,029.6,000.0,038.4,031.9,014.7,0000.0,0001.71,0005.61,0000.92
2024-06-05 06:56:00,SystemResetWarning,0827.2,5.01,000.00,030.2,029.6,000.0,038.4,032.0,014.6,0000.0,0001.77,0006.60,0000.92
2024-06-05 06:57:00,SystemResetWarning,0827.1,4.99,000.00,030.2,029.7,000.0,038.4,032.0,014.6,0000.0,0001.77,0006.22,0000.92
2024-06-05 06:58:00,SystemResetWarning,0827.1,5.00,000.00,030.3,029.7,000.0,038.5,032.0,014.5,0000.0,0001.81,0005.79,0000.92
2024-06-05 06:59:00,SystemResetWarning,0827.1,5.00,000.00,030.3,029.7,000.0,038.5,032.0,014.3,0000.0,0001.81,0006.70,0000.92
